Fairfield, NJ

3:19 AM EST on February 24, 2017 (GMT -0500)
Essex County

Weather History for KCDW - December, 2012

Change the Weather History Date:

Saturday, December 29, 2012

  Actual Average Record
Temperature  
Mean Temperature 28 °F -  
Max Temperature 32 °F 41 °F 64 °F (1982)
Min Temperature 25 °F 22 °F -2 °F (1950)
Degree Days  
Heating Degree Days 36    
Moisture  
Dew Point 26 °F    
Average Humidity 86    
Maximum Humidity 93    
Minimum Humidity 69    
Precipitation  
Precipitation 0.22 in - - ()
Sea Level Pressure  
Sea Level Pressure 29.70 in    
Wind  
Wind Speed 3 mph (NNE)    
Max Wind Speed 8 mph    
Max Gust Speed 20 mph    
Visibility 4 miles    
Events Fog , Snow    
Averages and records for this station are not official NWS values.
T = Trace of Precipitation, MM = Missing Value Source: NWS Daily Summary

Daily Weather History Graph

Daily Weather History Graph

Search for Another Location

Airport or City:

Trip Planner

Search our weather history database for the weather conditions in past years. The results will help you decide how hot, cold, wet, or windy it might be!

Date:

Astronomy

Dec. 29, 2012 Rise Set
Actual Time 7:21 AM EST 4:37 PM EST
Civil Twilight 6:50 AM EST 5:08 PM EST
Nautical Twilight 6:15 AM EST 5:43 PM EST
Astronomical Twilight 5:42 AM EST 6:16 PM EST
Moon 6:09 PM EST (12/29) 7:52 AM EST (12/29)
Length of Visible Light 10h 18m
Length of Day
9h 16m
Full, 98% of the Moon is Illuminated
Dec 29
Full
Jan 4
Last Quarter
Jan 11
New
Jan 18
First Quarter
Jan 26
Full

Hourly Weather History & Observations

Time (EST) Temp. Windchill Dew Point Humidity Pressure Visibility Wind Dir Wind Speed Gust Speed Precip Events Conditions
12:53 AM 25.0 °F - 21.9 °F 88% 30.06 in 10.0 mi Calm Calm - N/A   Clear
1:53 AM 26.1 °F - 21.9 °F 84% 30.06 in 10.0 mi Calm Calm - N/A   Clear
2:53 AM 28.0 °F - 21.9 °F 78% 30.06 in 10.0 mi Calm Calm - N/A   Mostly Cloudy
3:53 AM 28.0 °F - 21.9 °F 78% 30.04 in 10.0 mi Calm Calm - N/A   Clear
4:53 AM 28.0 °F - 21.9 °F 78% 30.03 in 10.0 mi Calm Calm - N/A   Partly Cloudy
5:53 AM 28.0 °F - 23.0 °F 81% 29.99 in 10.0 mi Calm Calm - N/A   Overcast
6:53 AM 28.9 °F - 24.1 °F 82% 29.96 in 10.0 mi Calm Calm - N/A   Mostly Cloudy
7:53 AM 30.0 °F 25.2 °F 24.1 °F 79% 29.93 in 10.0 mi NE 4.6 mph - N/A   Overcast
8:29 AM 30.2 °F 24.3 °F 24.8 °F 80% 29.90 in 10.0 mi ENE 5.8 mph - N/A   Overcast
8:53 AM 30.0 °F 23.2 °F 24.1 °F 79% 29.92 in 10.0 mi ENE 6.9 mph - N/A   Overcast
9:53 AM 30.9 °F 25.2 °F 24.1 °F 76% 29.88 in 10.0 mi ENE 5.8 mph - N/A   Overcast
10:53 AM 30.9 °F 23.5 °F 25.0 °F 79% 29.83 in 10.0 mi NE 8.1 mph - 0.00 in   Overcast
11:53 AM 30.9 °F 24.3 °F 26.1 °F 82% 29.75 in 3.0 mi ENE 6.9 mph - 0.00 in Snow Light Snow
12:00 PM 30.2 °F 24.3 °F 26.6 °F 86% 29.73 in 2.0 mi ENE 5.8 mph - 0.00 in Snow Light Snow
12:08 PM 30.2 °F 23.4 °F 26.6 °F 86% 29.72 in 1.2 mi ENE 6.9 mph - 0.00 in Snow Light Snow
12:18 PM 30.2 °F 24.3 °F 26.6 °F 86% 29.70 in 0.5 mi NE 5.8 mph - 0.01 in Fog , Snow Snow
12:26 PM 30.2 °F - 28.4 °F 93% 29.70 in 0.2 mi Calm Calm - 0.02 in Fog , Snow Heavy Snow
12:35 PM 30.2 °F 25.4 °F 28.4 °F 93% 29.69 in 0.2 mi NE 4.6 mph - 0.04 in Fog , Snow Heavy Snow
12:45 PM 30.2 °F 24.3 °F 28.4 °F 93% 29.68 in 0.2 mi NE 5.8 mph - 0.05 in Fog , Snow Heavy Snow
12:53 PM 30.0 °F - 28.0 °F 92% 29.70 in 0.2 mi Calm Calm - 0.06 in Fog , Snow Snow
1:01 PM 30.2 °F 25.4 °F 28.4 °F 93% 29.67 in 0.5 mi ENE 4.6 mph - 0.01 in Fog , Snow Snow
1:53 PM 30.9 °F - 28.9 °F 92% 29.66 in 0.2 mi Calm Calm - 0.06 in Fog , Snow Snow
2:10 PM 30.2 °F 26.7 °F 28.4 °F 93% 29.64 in 0.8 mi North 3.5 mph - 0.01 in Snow Light Snow
2:21 PM 30.2 °F 25.4 °F 28.4 °F 93% 29.63 in 1.2 mi NE 4.6 mph - 0.02 in Snow Light Snow
2:40 PM 30.2 °F 25.4 °F 28.4 °F 93% 29.62 in 0.5 mi NNE 4.6 mph - 0.04 in Fog , Snow Snow
2:53 PM 30.9 °F 26.2 °F 28.0 °F 89% 29.63 in 1.0 mi Variable 4.6 mph - 0.04 in Snow Light Snow
3:05 PM 30.2 °F 24.3 °F 28.4 °F 93% 29.60 in 2.0 mi NE 5.8 mph - 0.00 in Snow Light Snow
3:14 PM 30.2 °F - 28.4 °F 93% 29.59 in 1.5 mi Calm Calm - 0.00 in Snow Light Snow
3:22 PM 30.2 °F 24.3 °F 28.4 °F 93% 29.58 in 1.8 mi NE 5.8 mph - 0.00 in Snow Light Snow
3:53 PM 30.9 °F 27.5 °F 28.9 °F 92% 29.59 in 1.5 mi Variable 3.5 mph - 0.01 in Snow Light Snow
4:22 PM 30.2 °F 24.3 °F 28.4 °F 93% 29.55 in 1.0 mi NE 5.8 mph - 0.01 in Snow Light Snow
4:53 PM 30.0 °F 24.1 °F 28.0 °F 92% 29.56 in 1.5 mi NE 5.8 mph - 0.03 in Snow Light Snow
5:18 PM 30.2 °F 24.3 °F 28.4 °F 93% 29.54 in 1.5 mi NNE 5.8 mph - 0.01 in Snow Light Snow
6:07 PM 30.2 °F 25.4 °F 26.6 °F 86% 29.53 in 1.8 mi Variable 4.6 mph - 0.00 in Snow Light Snow
6:18 PM 30.2 °F - 26.6 °F 86% 29.53 in 2.0 mi Calm Calm - 0.00 in Snow Light Snow
6:36 PM 28.4 °F 22.2 °F 26.6 °F 93% 29.53 in 2.5 mi Variable 5.8 mph - 0.00 in Snow Light Snow
6:49 PM 30.2 °F 25.4 °F 26.6 °F 86% 29.53 in 4.0 mi Variable 4.6 mph - 0.00 in Snow Light Snow
6:53 PM 30.0 °F 26.5 °F 27.0 °F 88% 29.55 in 2.5 mi Variable 3.5 mph - 0.00 in Snow Light Snow
7:01 PM 30.2 °F 26.7 °F 26.6 °F 86% 29.53 in 1.0 mi Variable 3.5 mph - 0.01 in Snow Light Snow
7:23 PM 30.2 °F 26.7 °F 26.6 °F 86% 29.53 in 3.0 mi Variable 3.5 mph - 0.01 in Snow Light Snow
7:48 PM 30.2 °F 24.3 °F 26.6 °F 86% 29.53 in 1.8 mi North 5.8 mph - 0.01 in Snow Light Snow
7:53 PM 30.0 °F 25.2 °F 28.0 °F 92% 29.56 in 1.0 mi Variable 4.6 mph - 0.02 in Snow Light Snow
8:09 PM 30.2 °F - 26.6 °F 86% 29.54 in 3.0 mi Calm Calm - 0.00 in Snow Light Snow
8:53 PM 30.9 °F - 27.0 °F 85% 29.57 in 5.0 mi Calm Calm - 0.00 in Snow Light Snow
9:00 PM 30.2 °F 26.7 °F 26.6 °F 86% 29.55 in 4.0 mi NW 3.5 mph - 0.00 in Snow Light Snow
9:53 PM 30.9 °F 23.5 °F 26.1 °F 82% 29.60 in 10.0 mi NNW 8.1 mph - 0.00 in   Overcast
10:53 PM 32.0 °F 24.8 °F 26.1 °F 79% 29.62 in 10.0 mi NW 8.1 mph - N/A   Overcast
11:21 PM 32.0 °F 24.8 °F 24.8 °F 75% 29.60 in 10.0 mi NW 8.1 mph - N/A   Overcast
11:53 PM 32.0 °F 24.8 °F 23.0 °F 69% 29.62 in 10.0 mi NNW 8.1 mph 19.6 mph N/A   Mostly Cloudy